When you browse on this site, cookies collect data to enhance your experience and personalize the content and advertising you see.
Visit our Privacy Policy to learn more. By continuing to use the site, you agree to this use of cookies and data.
  • In Italy
  • List of Countries
  • For 7 days
  • Water Temperature
  • Satellite Maps
  • Weather Map
  • Weather Widgets
  • user-avatar
    Login

    Hourly Weather Hjorring

    Today, 21 February, Thursday

    Time Temperature Precipitation Wind Pressure Humidity
    00:00 +5°C° 0.7 mm 5 mps 757 mmHg 95%
    01:00 +5°C° 0 mm 5 mps 757 mmHg 95%
    02:00 +5°C° 0.8 mm 5 mps 756 mmHg 95%
    03:00 +4°C° 0.8 mm 6 mps 756 mmHg 95%
    04:00 +4°C° 0.8 mm 6 mps 756 mmHg 95%
    05:00 +4°C° 0.2 mm 6 mps 756 mmHg 95%
    06:00 +5°C° 0.2 mm 6 mps 756 mmHg 95%
    07:00 +5°C° 0 mm 5 mps 756 mmHg 95%
    08:00 +5°C° 0.1 mm 6 mps 756 mmHg 94%
    09:00 +5°C° 0.1 mm 6 mps 757 mmHg 94%
    10:00 +5°C° 0.1 mm 6 mps 757 mmHg 94%
    11:00 +6°C° 0 mm 5 mps 757 mmHg 93%
    12:00 +6°C° 0 mm 5 mps 758 mmHg 93%
    13:00 +6°C° 0 mm 5 mps 759 mmHg 94%
    14:00 +5°C° 0 mm 5 mps 759 mmHg 92%
    15:00 +5°C° 0 mm 5 mps 760 mmHg 90%
    16:00 +3°C° 0 mm 5 mps 760 mmHg 88%
    17:00 +3°C° 0 mm 5 mps 761 mmHg 89%
    18:00 +2°C° 0 mm 5 mps 762 mmHg 90%
    19:00 +1°C° 0 mm 5 mps 763 mmHg 90%
    20:00 +1°C° 0 mm 5 mps 764 mmHg 90%
    21:00 +1°C° 0 mm 5 mps 765 mmHg 89%
    22:00 +1°C° 0 mm 5 mps 766 mmHg 89%
    23:00 +1°C° 0 mm 5 mps 767 mmHg 88%

    Tomorrow, 22 February, Friday

    Time Temperature Precipitation Wind Pressure Humidity
    00:00 +1°C° 0 mm 5 mps 769 mmHg 87%
    01:00 +1°C° 0 mm 5 mps 770 mmHg 86%
    02:00 +1°C° 0 mm 5 mps 771 mmHg 85%
    03:00 +1°C° 0 mm 5 mps 771 mmHg 85%
    04:00 +1°C° 0 mm 4 mps 772 mmHg 84%
    05:00 0°C° 0 mm 5 mps 773 mmHg 84%
    06:00 0°C° 0 mm 5 mps 773 mmHg 83%
    07:00 0°C° 0 mm 5 mps 774 mmHg 83%
    08:00 0°C° 0 mm 5 mps 774 mmHg 81%
    09:00 0°C° 0 mm 5 mps 775 mmHg 79%
    10:00 +1°C° 0 mm 5 mps 776 mmHg 76%
    11:00 +1°C° 0 mm 5 mps 776 mmHg 74%
    12:00 +1°C° 0 mm 5 mps 776 mmHg 71%
    13:00 +2°C° 0 mm 5 mps 776 mmHg 68%
    14:00 +3°C° 0 mm 4 mps 776 mmHg 68%
    15:00 +3°C° 0 mm 4 mps 776 mmHg 68%
    16:00 +3°C° 0 mm 4 mps 776 mmHg 67%
    17:00 +3°C° 0 mm 4 mps 776 mmHg 71%
    18:00 +2°C° 0 mm 3 mps 777 mmHg 74%
    19:00 +2°C° 0 mm 3 mps 777 mmHg 77%
    20:00 +1°C° 0 mm 4 mps 776 mmHg 78%
    21:00 0°C° 0 mm 4 mps 776 mmHg 78%
    22:00 0°C° 0 mm 5 mps 776 mmHg 79%
    23:00 0°C° 0 mm 5 mps 776 mmHg 80%

    Day after tomorrow, 23 February, Saturday

    Time Temperature Precipitation Wind Pressure Humidity
    00:00 0°C° 0 mm 5 mps 776 mmHg 81%
    01:00 0°C° 0 mm 5 mps 776 mmHg 82%
    02:00 -1°C° 0 mm 5 mps 776 mmHg 82%
    03:00 -1°C° 0 mm 5 mps 775 mmHg 82%
    04:00 -1°C° 0 mm 5 mps 775 mmHg 83%
    05:00 -1°C° 0 mm 5 mps 775 mmHg 84%
    06:00 -1°C° 0 mm 5 mps 775 mmHg 84%
    07:00 -1°C° 0 mm 5 mps 775 mmHg 85%
    08:00 0°C° 0 mm 5 mps 775 mmHg 84%
    09:00 +1°C° 0 mm 5 mps 775 mmHg 83%
    10:00 +2°C° 0 mm 5 mps 775 mmHg 82%
    11:00 +3°C° 0 mm 5 mps 774 mmHg 81%
    12:00 +5°C° 0 mm 5 mps 774 mmHg 81%
    13:00 +6°C° 0 mm 5 mps 774 mmHg 80%
    14:00 +6°C° 0 mm 5 mps 774 mmHg 80%
    15:00 +6°C° 0 mm 5 mps 774 mmHg 79%
    16:00 +6°C° 0 mm 5 mps 774 mmHg 79%
    17:00 +6°C° 0 mm 5 mps 774 mmHg 81%
    18:00 +5°C° 0 mm 5 mps 774 mmHg 84%
    19:00 +3°C° 0 mm 5 mps 774 mmHg 86%
    20:00 +3°C° 0 mm 5 mps 774 mmHg 87%
    21:00 +3°C° 0 mm 5 mps 774 mmHg 87%
    22:00 +2°C° 0 mm 5 mps 774 mmHg 88%
    23:00 +2°C° 0 mm 5 mps 774 mmHg 87%

    24 February, Sunday

    Time Temperature Precipitation Wind Pressure Humidity
    00:00 +2°C° 0 mm 5 mps 774 mmHg 86%
    01:00 +2°C° 0 mm 5 mps 774 mmHg 84%
    02:00 +2°C° 0 mm 5 mps 773 mmHg 83%
    03:00 +2°C° 0 mm 5 mps 773 mmHg 82%
    04:00 +2°C° 0 mm 5 mps 773 mmHg 81%
    05:00 +2°C° 0 mm 5 mps 773 mmHg 82%
    06:00 +2°C° 0 mm 5 mps 773 mmHg 82%
    07:00 +2°C° 0 mm 5 mps 773 mmHg 83%
    08:00 +3°C° 0 mm 5 mps 773 mmHg 81%
    09:00 +4°C° 0 mm 6 mps 773 mmHg 78%
    10:00 +5°C° 0 mm 6 mps 773 mmHg 76%
    11:00 +5°C° 0 mm 6 mps 773 mmHg 74%
    12:00 +7°C° 0 mm 6 mps 773 mmHg 73%
    13:00 +8°C° 0 mm 7 mps 773 mmHg 71%
    14:00 +7°C° 0 mm 6 mps 773 mmHg 72%
    15:00 +7°C° 0 mm 6 mps 773 mmHg 73%
    16:00 +7°C° 0 mm 6 mps 773 mmHg 74%
    17:00 +6°C° 0 mm 5 mps 773 mmHg 78%
    18:00 +5°C° 0 mm 5 mps 773 mmHg 81%
    19:00 +5°C° 0 mm 4 mps 773 mmHg 84%
    20:00 +4°C° 0 mm 4 mps 773 mmHg 84%
    21:00 +4°C° 0 mm 4 mps 773 mmHg 84%
    22:00 +4°C° 0 mm 4 mps 774 mmHg 84%
    23:00 +4°C° 0 mm 4 mps 774 mmHg 82%

    25 February, Monday

    Time Temperature Precipitation Wind Pressure Humidity
    00:00 +4°C° 0 mm 4 mps 774 mmHg 80%
    01:00 +3°C° 0 mm 4 mps 774 mmHg 78%
    02:00 +3°C° 0 mm 4 mps 773 mmHg 78%
    03:00 +3°C° 0 mm 4 mps 773 mmHg 77%
    04:00 +3°C° 0 mm 4 mps 773 mmHg 77%
    05:00 +2°C° 0 mm 5 mps 773 mmHg 76%
    06:00 +2°C° 0 mm 5 mps 773 mmHg 74%
    07:00 +2°C° 0 mm 5 mps 773 mmHg 73%
    08:00 +3°C° 0 mm 6 mps 773 mmHg 71%
    09:00 +4°C° 0 mm 6 mps 773 mmHg 69%
    10:00 +4°C° 0 mm 6 mps 773 mmHg 68%
    11:00 +5°C° 0 mm 6 mps 773 mmHg 65%
    12:00 +6°C° 0 mm 7 mps 772 mmHg 63%
    13:00 +8°C° 0 mm 7 mps 772 mmHg 61%
    14:00 +6°C° 0 mm 7 mps 772 mmHg 61%
    15:00 +6°C° 0 mm 7 mps 772 mmHg 62%
    16:00 +6°C° 0 mm 8 mps 771 mmHg 63%
    17:00 +5°C° 0 mm 8 mps 771 mmHg 69%
    18:00 +5°C° 0 mm 7 mps 771 mmHg 76%
    19:00 +4°C° 0 mm 7 mps 771 mmHg 82%
    20:00 +4°C° 0 mm 7 mps 771 mmHg 84%
    21:00 +4°C° 0 mm 7 mps 770 mmHg 86%
    22:00 +5°C° 0 mm 8 mps 770 mmHg 87%
    23:00 +5°C° 0 mm 8 mps 770 mmHg 87%

    26 February, Tuesday

    Time Temperature Precipitation Wind Pressure Humidity
    00:00 +5°C° 0 mm 8 mps 770 mmHg 88%
    01:00 +5°C° 0 mm 8 mps 770 mmHg 88%
    02:00 +5°C° 0 mm 8 mps 770 mmHg 88%
    03:00 +5°C° 0 mm 8 mps 769 mmHg 88%
    04:00 +5°C° 0 mm 8 mps 769 mmHg 89%
    05:00 +5°C° 0 mm 8 mps 769 mmHg 89%
    06:00 +5°C° 0 mm 7 mps 769 mmHg 89%
    07:00 +5°C° 0 mm 7 mps 769 mmHg 88%
    08:00 +7°C° 0 mm 6 mps 769 mmHg 86%
    09:00 +8°C° 0 mm 6 mps 769 mmHg 84%
    10:00 +8°C° 0 mm 5 mps 769 mmHg 82%
    11:00 +9°C° 0 mm 5 mps 769 mmHg 80%
    12:00 +10°C° 0 mm 4 mps 769 mmHg 78%
    13:00 +11°C° 0 mm 4 mps 769 mmHg 77%
    14:00 +11°C° 0 mm 3 mps 769 mmHg 77%
    15:00 +10°C° 0 mm 3 mps 769 mmHg 77%
    16:00 +10°C° 0 mm 2 mps 769 mmHg 78%
    17:00 +9°C° 0 mm 2 mps 769 mmHg 81%
    18:00 +8°C° 0 mm 2 mps 769 mmHg 85%
    19:00 +7°C° 0 mm 2 mps 769 mmHg 89%
    20:00 +7°C° 0 mm 2 mps 769 mmHg 90%
    21:00 +7°C° 0 mm 2 mps 769 mmHg 90%
    22:00 +7°C° 0 mm 3 mps 769 mmHg 91%
    23:00 +7°C° 0 mm 3 mps 768 mmHg 90%
    Show more